EW4561 Weather Reports


time (UTC)temp
F
wind
direction
speed
knots
gust
knots
rain 1hr
in
rain 24hr
in
rain mn
in
humidity
%
barometer
mb
20260509102407 57 0 0.0 0.0 0.00 0.00 0.00 69 1024.6
20260509101807 57 0 0.0 0.0 0.00 0.00 0.00 68 1024.5
20260509101207 57 0 0.0 0.0 0.00 0.00 0.00 68 1024.5
20260509100606 57 0 0.0 0.0 0.00 0.00 0.00 67 1024.4
20260509100007 58 0 0.0 0.0 0.00 0.00 0.00 67 1024.3
20260509095407 58 0 0.0 0.0 0.00 0.00 0.00 66 1024.3
20260509094806 58 0 0.0 0.0 0.00 0.00 0.00 66 1024.3
20260509094206 59 0 0.0 0.0 0.00 0.00 0.00 66 1024.3
20260509093606 59 0 0.0 0.0 0.00 0.00 0.00 65 1024.2
20260509093006 59 0 0.0 0.0 0.00 0.00 0.00 65 1024.1
20260509092407 60 0 0.0 0.0 0.00 0.00 0.00 64 1024.1
20260509091207 60 0 0.0 0.0 0.00 0.00 0.00 63 1023.9
20260509090606 61 0 0.0 0.0 0.00 0.00 0.00 63 1023.8
20260509090006 61 0 0.0 0.0 0.00 0.00 0.00 62 1023.7
20260509085407 61 0 0.0 0.0 0.00 0.00 0.00 62 1023.6
20260509084806 62 0 0.0 0.0 0.00 0.00 0.00 62 1023.5
20260509084206 62 0 0.0 0.0 0.00 0.00 0.00 61 1023.4
20260509083606 62 0 0.0 0.0 0.00 0.00 0.00 60 1023.3
20260509083007 63 0 0.0 0.0 0.00 0.00 0.00 60 1023.3
20260509082406 63 0 0.0 0.0 0.00 0.00 0.00 59 1023.2
20260509081206 64 0 0.0 0.0 0.00 0.00 0.00 58 1023.0
20260509080606 64 0 0.0 0.0 0.00 0.00 0.00 58 1022.9
20260509080007 64 112 0.0 2.6 0.00 0.00 0.00 57 1022.8
20260509075407 65 118 0.9 2.6 0.00 0.00 0.00 57 1022.7
20260509074806 65 119 1.7 7.8 0.00 0.00 0.00 57 1022.5
20260509074207 65 125 2.6 7.8 0.00 0.00 0.00 56 1022.4
20260509073607 66 125 1.7 4.3 0.00 0.00 0.00 56 1022.3
20260509073006 66 117 1.7 4.3 0.00 0.00 0.00 55 1022.2
20260509072407 66 121 2.6 5.2 0.00 0.00 0.00 55 1022.2
20260509071807 67 125 3.5 5.2 0.00 0.00 0.00 54 1022.0
20260509071207 67 123 3.5 8.7 0.00 0.00 0.00 54 1022.0
20260509070607 68 118 3.5 8.7 0.00 0.00 0.00 53 1021.9
20260509070006 68 119 3.5 7.8 0.00 0.00 0.00 53 1021.9
20260509064806 69 122 2.6 7.8 0.00 0.00 0.00 51 1021.7
20260509064207 70 122 2.6 5.2 0.00 0.00 0.00 51 1021.7
20260509063607 71 122 1.7 5.2 0.00 0.00 0.00 49 1021.6
20260509062407 72 98 0.0 0.9 0.00 0.00 0.00 45 1021.5
20260509061207 73 0 0.0 0.0 0.00 0.00 0.00 45 1021.3
20260509060607 73 0 0.0 0.0 0.00 0.00 0.00 44 1021.2
20260509060006 73 0 0.0 0.0 0.00 0.00 0.00 44 1021.2
20260509055407 73 0 0.0 0.0 0.00 0.00 0.00 45 1021.1
20260509054806 73 84 0.0 0.9 0.00 0.00 0.00 45 1021.1
20260509054206 73 104 0.9 2.6 0.00 0.00 0.00 44 1021.1
20260509053006 73 100 0.0 4.3 0.00 0.00 0.00 44 1021.0
20260509052407 73 63 0.9 2.6 0.00 0.00 0.00 43 1021.0
20260509051807 73 123 0.9 3.5 0.00 0.00 0.00 43 1021.0
20260509051206 74 151 0.9 4.3 0.00 0.00 0.00 42 1021.0
20260509050606 74 161 0.9 4.3 0.00 0.00 0.00 43 1021.0
20260509050006 75 252 0.0 3.5 0.00 0.00 0.00 42 1021.0
20260509045406 75 229 0.0 2.6 0.00 0.00 0.00 42 1021.0
20260509044206 74 131 0.9 2.6 0.00 0.00 0.00 43 1021.0
20260509043606 74 117 0.9 3.5 0.00 0.00 0.00 44 1021.0
20260509043007 73 118 0.0 3.5 0.00 0.00 0.00 44 1021.0
20260509041806 72 21 0.0 0.9 0.00 0.00 0.00 45 1021.0
20260509041206 72 255 0.0 2.6 0.00 0.00 0.00 45 1021.0
20260509040606 72 247 0.9 2.6 0.00 0.00 0.00 45 1021.0
20260509040007 72 184 0.9 3.5 0.00 0.00 0.00 45 1021.1
20260509035406 72 206 0.9 2.6 0.00 0.00 0.00 45 1021.1
20260509034807 72 172 0.9 3.5 0.00 0.00 0.00 45 1021.1
20260509034207 72 102 0.9 5.2 0.00 0.00 0.00 45 1021.1
20260509033606 72 100 0.9 5.2 0.00 0.00 0.00 45 1021.1
20260509033007 71 157 0.9 4.3 0.00 0.00 0.00 45 1021.2
20260509032406 71 162 0.9 4.3 0.00 0.00 0.00 45 1021.2
20260509031806 71 149 0.0 3.5 0.00 0.00 0.00 45 1021.3
20260509031205 71 145 0.0 3.5 0.00 0.00 0.00 45 1021.4
20260509030606 71 139 0.9 3.5 0.00 0.00 0.00 46 1021.4
20260509025406 71 154 1.7 5.2 0.00 0.00 0.00 45 1021.6
20260509024806 71 167 0.9 5.2 0.00 0.00 0.00 45 1021.7
20260509024206 71 177 0.9 4.3 0.00 0.00 0.00 46 1021.8
20260509023007 70 143 0.9 7.0 0.00 0.00 0.00 46 1022.0
20260509021806 70 132 0.9 4.3 0.00 0.00 0.00 48 1022.2
20260509021206 69 165 0.9 4.3 0.00 0.00 0.00 49 1022.3
20260509020607 69 296 0.9 4.3 0.00 0.00 0.00 49 1022.4
20260509020006 69 238 0.9 2.6 0.00 0.00 0.00 49 1022.5
20260509015407 69 246 0.9 4.3 0.00 0.00 0.00 50 1022.6
20260509014806 68 289 0.0 4.3 0.00 0.00 0.00 50 1022.7
20260509014207 68 201 0.0 2.6 0.00 0.00 0.00 51 1022.7
20260509013606 67 218 0.9 3.5 0.00 0.00 0.00 53 1022.8
20260509013007 67 156 0.9 3.5 0.00 0.00 0.00 53 1022.8
20260509012406 67 123 0.9 3.5 0.00 0.00 0.00 54 1022.9
20260509011807 67 103 0.9 3.5 0.00 0.00 0.00 55 1022.9
20260509011207 66 91 0.9 3.5 0.00 0.00 0.00 56 1023.0
20260509010606 65 5 0.9 4.3 0.00 0.00 0.00 56 1023.0
20260509010006 65 293 0.0 4.3 0.00 0.00 0.00 56 1023.1
20260509005407 65 264 0.0 2.6 0.00 0.00 0.00 57 1023.3
20260509004806 64 235 0.0 0.9 0.00 0.00 0.00 58 1023.4
20260509004207 64 275 0.0 2.6 0.00 0.00 0.00 59 1023.4
20260509003007 62 0 0.0 0.0 0.00 0.00 0.00 62 1023.5
20260509001806 61 347 0.9 3.5 0.00 0.00 0.00 63 1023.6
20260509001206 61 344 0.0 3.5 0.00 0.00 0.00 65 1023.6
20260509000606 60 103 0.0 3.5 0.00 0.00 0.00 67 1023.6
20260509000007 59 101 0.9 3.5 0.00 0.00 0.00 68 1023.7
20260508234806 58 47 0.0 2.6 0.00 0.00 0.00 72 1023.8
20260508234206 57 293 0.0 0.9 0.00 0.00 0.00 73 1023.7
20260508233607 56 298 0.0 2.6 0.00 0.00 0.00 74 1023.7
20260508231806 54 0 0.0 0.0 0.00 0.00 0.00 78 1023.8
20260508231206 53 0 0.0 0.0 0.00 0.00 0.00 79 1023.8
20260508230007 52 0 0.0 0.0 0.00 0.00 0.00 80 1023.7
20260508224206 50 0 0.0 0.0 0.00 0.00 0.00 82 1023.7
20260508223006 48 0 0.0 0.0 0.00 0.00 0.00 82 1023.7
20260508222406 48 0 0.0 0.0 0.00 0.00 0.00 82 1023.7
20260508221805 47 0 0.0 0.0 0.00 0.00 0.00 82 1023.6
20260508221206 46 0 0.0 0.0 0.00 0.00 0.00 82 1023.6
20260508220606 46 0 0.0 0.0 0.00 0.00 0.00 82 1023.5
20260508215406 45 0 0.0 0.0 0.00 0.00 0.00 82 1023.6
20260508214806 44 0 0.0 0.0 0.00 0.00 0.00 81 1023.5
20260508214206 44 0 0.0 0.0 0.00 0.00 0.00 81 1023.4
20260508213005 43 0 0.0 0.0 0.00 0.00 0.00 81 1023.2
20260508212406 43 0 0.0 0.0 0.00 0.00 0.00 81 1023.1
20260508211806 43 0 0.0 0.0 0.00 0.00 0.00 80 1023.1
20260508211206 42 0 0.0 0.0 0.00 0.00 0.00 80 1023.0
20260508210607 42 0 0.0 0.0 0.00 0.00 0.00 80 1022.9
20260508210006 42 0 0.0 0.0 0.00 0.00 0.00 80 1022.9
20260508205405 42 0 0.0 0.0 0.00 0.00 0.00 80 1022.8
20260508204806 42 0 0.0 0.0 0.00 0.00 0.00 80 1022.7
20260508204206 42 0 0.0 0.0 0.00 0.00 0.00 80 1022.6
20260508203007 43 0 0.0 0.0 0.00 0.00 0.00 80 1022.4
20260508201806 43 0 0.0 0.0 0.00 0.00 0.00 79 1022.4
20260508201207 43 0 0.0 0.0 0.00 0.00 0.00 79 1022.3
20260508200606 43 0 0.0 0.0 0.00 0.00 0.00 79 1022.3
20260508200007 43 0 0.0 0.0 0.00 0.00 0.00 79 1022.2
20260508194806 43 0 0.0 0.0 0.00 0.00 0.00 79 1022.1
20260508194206 43 0 0.0 0.0 0.00 0.00 0.00 79 1022.0
20260508193605 43 0 0.0 0.0 0.00 0.00 0.00 79 1021.9
20260508193006 43 0 0.0 0.0 0.00 0.00 0.00 79 1021.7
20260508192407 43 0 0.0 0.0 0.00 0.00 0.00 79 1021.6
20260508191806 43 0 0.0 0.0 0.00 0.00 0.00 79 1021.7
20260508191206 43 0 0.0 0.0 0.00 0.00 0.00 79 1021.7
20260508185407 44 0 0.0 0.0 0.00 0.00 0.00 79 1021.5
20260508184806 44 0 0.0 0.0 0.00 0.00 0.00 79 1021.4
20260508184206 44 0 0.0 0.0 0.00 0.00 0.00 79 1021.2
20260508183606 44 0 0.0 0.0 0.00 0.00 0.00 79 1021.2
20260508183006 44 0 0.0 0.0 0.00 0.00 0.00 79 1021.2
20260508182406 44 0 0.0 0.0 0.00 0.00 0.00 79 1021.1
20260508181806 44 0 0.0 0.0 0.00 0.00 0.00 79 1021.1
20260508181205 44 0 0.0 0.0 0.00 0.00 0.00 79 1021.1
20260508180006 44 0 0.0 0.0 0.00 0.00 0.00 79 1020.9
20260508175406 44 0 0.0 0.0 0.00 0.00 0.00 79 1020.9
20260508174806 44 0 0.0 0.0 0.00 0.00 0.00 79 1020.8
20260508174206 44 0 0.0 0.0 0.00 0.00 0.00 78 1020.8
20260508173606 44 0 0.0 0.0 0.00 0.00 0.00 78 1020.9
20260508173006 45 0 0.0 0.0 0.00 0.00 0.00 78 1020.8
20260508172406 45 0 0.0 0.0 0.00 0.00 0.00 78 1020.8
20260508171806 45 0 0.0 0.0 0.00 0.00 0.00 78 1020.8
20260508171206 45 0 0.0 0.0 0.00 0.00 0.00 78 1020.8
20260508170605 45 0 0.0 0.0 0.00 0.00 0.00 78 1020.8
20260508170006 45 0 0.0 0.0 0.00 0.00 0.00 78 1020.8
20260508165406 45 0 0.0 0.0 0.00 0.00 0.00 78 1020.9
20260508164206 46 0 0.0 0.0 0.00 0.00 0.00 78 1020.9
20260508163606 46 0 0.0 0.0 0.00 0.00 0.00 78 1020.9
20260508163006 46 0 0.0 0.0 0.00 0.00 0.00 78 1020.8
20260508162406 46 0 0.0 0.0 0.00 0.00 0.00 78 1020.8
20260508161807 46 0 0.0 0.0 0.00 0.00 0.00 78 1020.7
20260508161206 46 0 0.0 0.0 0.00 0.00 0.00 77 1020.8
20260508160606 46 0 0.0 0.0 0.00 0.00 0.00 78 1020.7
20260508160006 46 0 0.0 0.0 0.00 0.00 0.00 77 1020.6
20260508155406 46 0 0.0 0.0 0.00 0.00 0.00 77 1020.6
20260508154806 46 0 0.0 0.0 0.00 0.00 0.00 77 1020.6
20260508153606 46 0 0.0 0.0 0.00 0.00 0.00 77 1020.6
20260508153006 47 0 0.0 0.0 0.00 0.00 0.00 76 1020.6
20260508152406 47 0 0.0 0.0 0.00 0.00 0.00 76 1020.5
20260508151206 47 0 0.0 0.0 0.00 0.00 0.00 76 1020.7
20260508150606 47 0 0.0 0.0 0.00 0.00 0.00 76 1020.8
20260508150006 47 0 0.0 0.0 0.00 0.00 0.00 76 1020.7
20260508144805 48 0 0.0 0.0 0.00 0.00 0.00 76 1020.7
20260508144206 48 0 0.0 0.0 0.00 0.00 0.00 76 1020.7
20260508143606 48 0 0.0 0.0 0.00 0.00 0.00 75 1020.6
20260508143006 48 0 0.0 0.0 0.00 0.00 0.00 75 1020.6
20260508142405 48 0 0.0 0.0 0.00 0.00 0.00 75 1020.6
20260508141805 48 0 0.0 0.0 0.00 0.00 0.00 75 1020.6
20260508141206 48 0 0.0 0.0 0.00 0.00 0.00 75 1020.6
20260508140605 48 0 0.0 0.0 0.00 0.00 0.00 75 1020.5
20260508140006 48 0 0.0 0.0 0.00 0.00 0.00 74 1020.7
20260508135406 48 0 0.0 0.0 0.00 0.00 0.00 74 1020.6
20260508134805 49 0 0.0 0.0 0.00 0.00 0.00 74 1020.5
20260508133005 49 0 0.0 0.0 0.00 0.00 0.00 73 1020.5
20260508132406 49 0 0.0 0.0 0.00 0.00 0.00 73 1020.4
20260508131806 49 0 0.0 0.0 0.00 0.00 0.00 73 1020.4
20260508131206 49 0 0.0 0.0 0.00 0.00 0.00 73 1020.4
20260508130005 50 0 0.0 0.0 0.00 0.00 0.00 73 1020.4
20260508125406 50 0 0.0 0.0 0.00 0.00 0.00 73 1020.4
20260508124805 50 0 0.0 0.0 0.00 0.00 0.00 73 1020.4
20260508124205 50 0 0.0 0.0 0.00 0.00 0.00 72 1020.3
20260508123605 50 0 0.0 0.0 0.00 0.00 0.00 72 1020.3
20260508123005 50 0 0.0 0.0 0.00 0.00 0.00 72 1020.2
20260508122406 51 0 0.0 0.0 0.00 0.00 0.00 72 1020.3
20260508120605 51 0 0.0 0.0 0.00 0.00 0.00 71 1020.3
20260508120006 51 0 0.0 0.0 0.00 0.00 0.00 71 1020.4
20260508115406 51 0 0.0 0.0 0.00 0.00 0.00 70 1020.4
20260508114806 51 0 0.0 0.0 0.00 0.00 0.00 70 1020.4
20260508114205 51 0 0.0 0.0 0.00 0.00 0.00 70 1020.3
20260508113606 52 0 0.0 0.0 0.00 0.00 0.00 69 1020.3
20260508113006 52 0 0.0 0.0 0.00 0.00 0.00 69 1020.2
20260508112405 52 0 0.0 0.0 0.00 0.00 0.00 68 1020.1
20260508111805 53 0 0.0 0.0 0.00 0.00 0.00 67 1020.1
20260508111206 53 0 0.0 0.0 0.00 0.00 0.00 66 1020.1
20260508110606 53 0 0.0 0.0 0.00 0.00 0.00 65 1020.1
20260508110005 54 0 0.0 0.0 0.00 0.00 0.00 65 1020.0
20260508105406 54 0 0.0 0.0 0.00 0.00 0.00 64 1020.0
20260508104805 54 0 0.0 0.0 0.00 0.00 0.00 64 1019.9
20260508104205 55 0 0.0 0.0 0.00 0.00 0.00 63 1019.9
20260508103005 55 0 0.0 0.0 0.00 0.00 0.00 62 1019.7